CW9635 Weather Reports


time (UTC)temp
C
wind
direction
speed
KPH
gust
KPH
rain 1hr
cm
rain 24hr
cm
rain mn
cm
humidity
%
barometer
mb
20260508223734 23 34 17.7 32.2 0.00 0.00 0.00 22 1015.1
20260508223228 23 334 16.1 30.6 0.00 0.00 0.00 22 1015.3
20260508222722 23 13 17.7 32.2 0.00 0.00 0.00 22 1015.2
20260508222212 23 29 17.7 35.4 0.00 0.00 0.00 22 1015.2
20260508221711 23 348 16.1 35.4 0.00 0.00 0.00 22 1015.4
20260508221200 23 302 16.1 33.8 0.00 0.00 0.00 22 1015.4
20260508220926 23 293 17.7 33.8 0.00 0.00 0.00 22 1015.4
20260508220150 23 348 16.1 37.0 0.00 0.00 0.00 22 1015.4
20260508215648 23 9 16.1 37.0 0.00 0.00 0.00 22 1015.5
20260508215420 23 0 16.1 30.6 0.00 0.00 0.00 22 1015.4
20260508214651 23 314 17.7 32.2 0.00 0.00 0.00 22 1015.5
20260508214146 22 16 20.9 38.6 0.00 0.00 0.00 23 1015.4
20260508213645 22 346 17.7 38.6 0.00 0.00 0.00 22 1015.6
20260508213145 23 344 19.3 33.8 0.00 0.00 0.00 22 1015.7
20260508212145 23 315 19.3 41.8 0.00 0.00 0.00 22 1015.7
20260508211642 23 9 16.1 41.8 0.00 0.00 0.00 22 1015.9
20260508211142 22 290 16.1 29.0 0.00 0.00 0.00 22 1015.7
20260508210640 23 315 14.5 29.0 0.00 0.00 0.00 22 1016.0
20260508210140 23 22 16.1 30.6 0.00 0.00 0.00 22 1016.2
20260508205640 22 335 17.7 30.6 0.00 0.00 0.00 22 1016.0
20260508205410 23 11 17.7 30.6 0.00 0.00 0.00 22 1016.2
20260508204639 22 15 17.7 30.6 0.00 0.00 0.00 22 1016.2
20260508204140 22 0 17.7 30.6 0.00 0.00 0.00 22 1016.1
20260508203910 22 325 16.1 32.2 0.00 0.00 0.00 22 1016.2
20260508203130 22 32 16.1 32.2 0.00 0.00 0.00 23 1016.1
20260508202622 22 279 17.7 40.2 0.00 0.00 0.00 23 1016.2
20260508202117 22 10 19.3 40.2 0.00 0.00 0.00 22 1016.1
20260508201607 22 12 20.9 37.0 0.00 0.00 0.00 23 1016.2
20260508201104 22 36 20.9 37.0 0.00 0.00 0.00 23 1016.1
20260508200550 22 0 19.3 32.2 0.00 0.00 0.00 23 1016.3
20260508200047 22 46 16.1 33.8 0.00 0.00 0.00 22 1016.4
20260508195540 22 290 16.1 33.8 0.00 0.00 0.00 23 1016.6
20260508195032 22 314 17.7 37.0 0.00 0.00 0.00 23 1016.6
20260508194520 22 38 17.7 37.0 0.00 0.00 0.00 22 1016.6
20260508194018 22 333 19.3 37.0 0.00 0.00 0.00 21 1016.6
20260508193508 22 336 19.3 35.4 0.00 0.00 0.00 20 1016.6
20260508193008 22 272 16.1 30.6 0.00 0.00 0.00 21 1016.6
20260508192506 22 306 12.9 30.6 0.00 0.00 0.00 22 1016.7
20260508192004 22 340 9.7 24.1 0.00 0.00 0.00 23 1016.9
20260508191738 22 328 9.7 19.3 0.00 0.00 0.00 25 1016.9
20260508191004 22 350 11.3 24.1 0.00 0.00 0.00 26 1016.8
20260508190503 21 307 14.5 25.7 0.00 0.00 0.00 26 1016.7
20260508190235 21 325 12.9 25.7 0.00 0.00 0.00 26 1016.7
20260508185502 21 27 11.3 22.5 0.00 0.00 0.00 27 1016.8
20260508185001 21 219 9.7 19.3 0.00 0.00 0.00 28 1016.8
20260508184503 21 5 9.7 20.9 0.00 0.00 0.00 28 1016.9
20260508184001 21 355 11.3 27.4 0.00 0.00 0.00 29 1016.7
20260508183459 21 5 11.3 27.4 0.00 0.00 0.00 29 1016.8
20260508182959 21 5 12.9 25.7 0.00 0.00 0.00 30 1016.9
20260508182731 21 5 16.1 27.4 0.00 0.00 0.00 30 1016.7
20260508182001 21 38 14.5 27.4 0.00 0.00 0.00 30 1016.8
20260508181456 21 69 12.9 30.6 0.00 0.00 0.00 31 1017.0
20260508180951 21 5 12.9 30.6 0.00 0.00 0.00 31 1017.0
20260508180439 21 327 11.3 25.7 0.00 0.00 0.00 30 1017.1
20260508175932 21 24 11.3 25.7 0.00 0.00 0.00 30 1017.2
20260508175426 21 338 11.3 22.5 0.00 0.00 0.00 29 1017.0
20260508174921 21 33 12.9 25.7 0.00 0.00 0.00 30 1017.0
20260508174410 21 12 11.3 25.7 0.00 0.00 0.00 30 1016.9
20260508173908 20 46 8.0 19.3 0.00 0.00 0.00 34 1016.9
20260508173404 21 89 9.7 19.3 0.00 0.00 0.00 35 1017.0
20260508172857 20 114 9.7 19.3 0.00 0.00 0.00 35 1016.8
20260508172356 20 112 8.0 12.9 0.00 0.00 0.00 36 1016.8
20260508171855 20 126 6.4 12.9 0.00 0.00 0.00 36 1016.8
20260508171356 20 130 6.4 12.9 0.00 0.00 0.00 38 1016.8
20260508170854 20 78 6.4 12.9 0.00 0.00 0.00 38 1016.8
20260508170352 20 49 4.8 12.9 0.00 0.00 0.00 38 1016.8
20260508165851 20 117 4.8 12.9 0.00 0.00 0.00 37 1016.7
20260508165351 19 67 4.8 9.7 0.00 0.00 0.00 40 1016.3
20260508164850 18 61 4.8 11.3 0.00 0.00 0.00 40 1016.1
20260508164621 18 89 6.4 12.9 0.00 0.00 0.00 40 1016.0
20260508163849 18 86 6.4 12.9 0.00 0.00 0.00 44 1015.9
20260508163352 18 122 6.4 11.3 0.00 0.00 0.00 45 1015.9
20260508162850 17 117 6.4 11.3 0.00 0.00 0.00 44 1015.6
20260508162344 17 89 6.4 11.3 0.00 0.00 0.00 44 1015.7
20260508162115 17 117 6.4 11.3 0.00 0.00 0.00 47 1015.5
20260508161339 17 119 6.4 11.3 0.00 0.00 0.00 46 1015.5
20260508160838 17 88 4.8 11.3 0.00 0.00 0.00 48 1015.5
20260508155836 17 69 3.2 11.3 0.00 0.00 0.00 48 1015.4
20260508155336 17 104 3.2 11.3 0.00 0.00 0.00 48 1015.3
20260508154835 17 96 4.8 9.7 0.00 0.00 0.00 47 1015.3
20260508154334 17 86 4.8 9.7 0.00 0.00 0.00 49 1015.2
20260508153837 17 97 3.2 9.7 0.00 0.00 0.00 49 1015.3
20260508153331 16 49 3.2 9.7 0.00 0.00 0.00 49 1014.9
20260508152819 16 89 3.2 9.7 0.00 0.00 0.00 50 1014.9
20260508152537 16 112 3.2 9.7 0.00 0.00 0.00 47 1014.7
20260508151802 15 105 3.2 8.0 0.00 0.00 0.00 51 1014.5
20260508151255 15 109 3.2 9.7 0.00 0.00 0.00 50 1014.5
20260508150751 15 101 3.2 9.7 0.00 0.00 0.00 52 1014.4
20260508150252 15 109 3.2 8.0 0.00 0.00 0.00 53 1014.4
20260508145750 15 80 3.2 8.0 0.00 0.00 0.00 54 1014.4
20260508145248 15 85 3.2 8.0 0.00 0.00 0.00 55 1014.4
20260508144749 15 86 3.2 8.0 0.00 0.00 0.00 55 1014.3
20260508144242 15 90 3.2 8.0 0.00 0.00 0.00 55 1014.1
20260508143737 15 82 3.2 8.0 0.00 0.00 0.00 55 1014.1
20260508143230 15 122 3.2 8.0 0.00 0.00 0.00 55 1014.0
20260508142730 15 104 1.6 6.4 0.00 0.00 0.00 55 1014.0
20260508142223 15 90 0.0 0.0 0.00 0.00 0.00 55 1014.0
20260508141715 15 86 0.0 1.6 0.00 0.00 0.00 56 1013.9
20260508141203 15 107 1.6 6.4 0.00 0.00 0.00 55 1013.7
20260508140641 15 107 1.6 6.4 0.00 0.00 0.00 55 1013.8
20260508140136 15 112 0.0 3.2 0.00 0.00 0.00 56 1013.7
20260508135626 14 247 0.0 0.0 0.00 0.00 0.00 57 1013.6
20260508135112 13 247 0.0 0.0 0.00 0.00 0.00 59 1013.3
20260508134605 13 247 0.0 0.0 0.00 0.00 0.00 59 1013.1
20260508134335 13 247 0.0 0.0 0.00 0.00 0.00 60 1013.1
20260508133606 13 250 0.0 0.0 0.00 0.00 0.00 60 1012.8
20260508133108 12 250 0.0 1.6 0.00 0.00 0.00 59 1012.7
20260508132604 12 250 1.6 3.2 0.00 0.00 0.00 58 1012.5
20260508132321 12 250 1.6 3.2 0.00 0.00 0.00 56 1012.3
20260508131547 12 260 1.6 3.2 0.00 0.00 0.00 52 1012.2
20260508131046 12 262 1.6 3.2 0.00 0.00 0.00 50 1012.2
20260508130809 12 262 1.6 4.8 0.00 0.00 0.00 49 1012.1
20260508130040 12 263 3.2 4.8 0.00 0.00 0.00 53 1012.1
20260508125810 12 260 3.2 4.8 0.00 0.00 0.00 48 1011.9
20260508125032 11 256 3.2 4.8 0.00 0.00 0.00 47 1011.6
20260508124519 11 247 1.6 4.8 0.00 0.00 0.00 48 1011.6
20260508124008 11 251 3.2 4.8 0.00 0.00 0.00 48 1011.5
20260508123503 11 259 3.2 6.4 0.00 0.00 0.00 48 1011.4
20260508123006 11 265 3.2 6.4 0.00 0.00 0.00 48 1011.2
20260508122504 11 242 3.2 6.4 0.00 0.00 0.00 48 1011.2
20260508122005 11 236 3.2 8.0 0.00 0.00 0.00 48 1011.2
20260508121502 11 173 4.8 9.7 0.00 0.00 0.00 48 1011.2
20260508121232 11 250 4.8 9.7 0.00 0.00 0.00 48 1011.1
20260508120501 11 261 6.4 11.3 0.00 0.00 0.00 47 1011.2
20260508120003 11 174 6.4 11.3 0.00 0.00 0.00 47 1011.1
20260508115504 11 257 6.4 9.7 0.00 0.00 0.00 47 1010.9
20260508115002 11 281 6.4 12.9 0.00 0.00 0.00 48 1010.8
20260508114447 11 255 8.0 14.5 0.00 0.00 0.00 47 1010.8
20260508113948 11 272 8.0 14.5 0.00 0.00 0.00 47 1010.8
20260508113440 11 257 4.8 11.3 0.00 0.00 0.00 47 1010.8
20260508112935 11 261 3.2 9.7 0.00 0.00 0.00 48 1011.1
20260508112429 11 230 4.8 9.7 0.00 0.00 0.00 46 1011.2
20260508111917 12 217 4.8 9.7 0.00 0.00 0.00 46 1011.2
20260508110912 12 212 4.8 9.7 0.00 0.00 0.00 46 1011.2
20260508110404 12 246 4.8 9.7 0.00 0.00 0.00 46 1011.3
20260508105858 12 267 4.8 9.7 0.00 0.00 0.00 47 1011.3
20260508105347 12 252 6.4 9.7 0.00 0.00 0.00 46 1011.4
20260508105118 12 267 6.4 9.7 0.00 0.00 0.00 46 1011.4
20260508104340 12 270 4.8 9.7 0.00 0.00 0.00 45 1011.6
20260508103834 13 231 4.8 8.0 0.00 0.00 0.00 45 1011.9
20260508103327 13 242 4.8 8.0 0.00 0.00 0.00 44 1012.0
20260508102821 13 190 4.8 6.4 0.00 0.00 0.00 43 1012.0
20260508102316 13 218 4.8 6.4 0.00 0.00 0.00 43 1011.7
20260508101813 13 219 3.2 6.4 0.00 0.00 0.00 43 1011.7
20260508101304 13 201 1.6 6.4 0.00 0.00 0.00 43 1011.9
20260508101028 13 159 1.6 6.4 0.00 0.00 0.00 43 1011.9
20260508100252 13 159 1.6 6.4 0.00 0.00 0.00 43 1011.9
20260508095748 13 193 4.8 11.3 0.00 0.00 0.00 44 1011.6
20260508095240 13 205 6.4 11.3 0.00 0.00 0.00 44 1011.6
20260508095004 13 219 6.4 11.3 0.00 0.00 0.00 44 1011.6
20260508094228 13 227 4.8 8.0 0.00 0.00 0.00 45 1011.5
20260508093722 13 217 3.2 8.0 0.00 0.00 0.00 44 1011.5
20260508093220 13 261 3.2 9.7 0.00 0.00 0.00 44 1011.7
20260508092710 13 344 3.2 9.7 0.00 0.00 0.00 43 1011.6
20260508092203 13 291 3.2 8.0 0.00 0.00 0.00 44 1011.7
20260508091702 13 217 1.6 6.4 0.00 0.00 0.00 44 1011.6
20260508091204 13 202 1.6 6.4 0.00 0.00 0.00 43 1011.9
20260508090706 13 186 3.2 8.0 0.00 0.00 0.00 43 1011.9
20260508090139 14 212 3.2 8.0 0.00 0.00 0.00 42 1012.2
20260508085634 14 254 3.2 8.0 0.00 0.00 0.00 40 1012.2
20260508085354 14 286 4.8 9.7 0.00 0.00 0.00 40 1012.2
20260508084620 14 279 6.4 12.9 0.00 0.00 0.00 41 1012.1
20260508084107 14 271 6.4 12.9 0.00 0.00 0.00 42 1012.1
20260508083607 14 275 6.4 12.9 0.00 0.00 0.00 42 1012.1
20260508083323 14 252 6.4 9.7 0.00 0.00 0.00 42 1012.1
20260508082549 14 261 6.4 9.7 0.00 0.00 0.00 42 1012.2
20260508082041 13 225 4.8 8.0 0.00 0.00 0.00 42 1012.0
20260508081535 13 254 4.8 8.0 0.00 0.00 0.00 43 1012.0
20260508081024 14 244 4.8 8.0 0.00 0.00 0.00 42 1012.1
20260508080520 14 256 3.2 6.4 0.00 0.00 0.00 41 1012.2
20260508080014 14 254 4.8 6.4 0.00 0.00 0.00 41 1012.4
20260508075504 14 252 4.8 8.0 0.00 0.00 0.00 41 1012.3
20260508075002 14 259 6.4 9.7 0.00 0.00 0.00 42 1012.3
20260508074727 14 259 4.8 9.7 0.00 0.00 0.00 42 1012.3
20260508073951 14 277 4.8 8.0 0.00 0.00 0.00 42 1012.3
20260508073444 14 254 4.8 8.0 0.00 0.00 0.00 41 1012.4
20260508073209 15 258 3.2 8.0 0.00 0.00 0.00 40 1012.8
20260508072433 15 228 1.6 6.4 0.00 0.00 0.00 38 1013.0
20260508071929 15 221 0.0 0.0 0.00 0.00 0.00 37 1013.1
20260508071659 15 105 0.0 0.0 0.00 0.00 0.00 38 1013.2
20260508070914 15 105 0.0 1.6 0.00 0.00 0.00 37 1013.0
20260508070409 15 105 0.0 3.2 0.00 0.00 0.00 38 1013.1
20260508065902 16 105 3.2 8.0 0.00 0.00 0.00 38 1013.1
20260508065352 15 26 3.2 8.0 0.00 0.00 0.00 38 1013.0
20260508064853 15 339 3.2 6.4 0.00 0.00 0.00 40 1012.8
20260508064625 15 355 4.8 8.0 0.00 0.00 0.00 41 1012.4
20260508063833 13 313 4.8 8.0 0.00 0.00 0.00 43 1012.1
20260508063606 13 275 3.2 8.0 0.00 0.00 0.00 45 1012.1
20260508062832 13 242 3.2 6.4 0.00 0.00 0.00 44 1012.1
20260508062332 14 193 1.6 6.4 0.00 0.00 0.00 43 1012.2
20260508062102 14 257 1.6 4.8 0.00 0.00 0.00 42 1012.2
20260508061336 14 223 3.2 4.8 0.00 0.00 0.00 43 1012.1
20260508060824 14 229 3.2 9.7 0.00 0.00 0.00 43 1012.0
20260508055817 14 261 4.8 8.0 0.00 0.00 0.00 42 1012.0
20260508055316 14 237 4.8 6.4 0.00 0.00 0.00 42 1011.9
20260508055046 14 232 4.8 8.0 0.00 0.00 0.00 42 1011.9
20260508054316 14 217 6.4 11.3 0.00 0.00 0.00 42 1012.2
20260508054047 15 202 6.4 11.3 0.00 0.00 0.00 40 1012.5
20260508053319 16 201 3.2 8.0 0.00 0.00 0.00 38 1013.0
20260508052813 16 201 4.8 9.7 0.00 0.00 0.00 37 1013.1
20260508052310 16 346 6.4 9.7 0.00 0.00 0.00 37 1012.8
20260508051810 16 266 8.0 11.3 0.00 0.00 0.00 38 1012.8
20260508051306 16 255 6.4 11.3 0.00 0.00 0.00 38 1012.9
20260508051023 16 268 6.4 9.7 0.00 0.00 0.00 37 1013.1
20260508050252 16 259 4.8 8.0 0.00 0.00 0.00 36 1013.0
20260508045751 16 261 3.2 6.4 0.00 0.00 0.00 36 1013.2
20260508045255 17 232 3.2 6.4 0.00 0.00 0.00 34 1013.6
20260508044750 18 306 4.8 8.0 0.00 0.00 0.00 33 1013.8
20260508044252 17 306 6.4 8.0 0.00 0.00 0.00 32 1013.7
20260508043744 17 303 8.0 9.7 0.00 0.00 0.00 34 1013.5
20260508043245 16 298 6.4 9.7 0.00 0.00 0.00 35 1013.3
20260508042744 16 268 4.8 6.4 0.00 0.00 0.00 37 1013.2
20260508042245 17 250 4.8 8.0 0.00 0.00 0.00 35 1013.6
20260508041741 17 254 3.2 8.0 0.00 0.00 0.00 34 1013.9
20260508041242 18 279 3.2 6.4 0.00 0.00 0.00 33 1014.0
20260508040743 17 280 4.8 6.4 0.00 0.00 0.00 33 1013.9
20260508040502 17 277 4.8 6.4 0.00 0.00 0.00 34 1013.9
20260508035735 18 274 4.8 9.7 0.00 0.00 0.00 33 1014.0
20260508035444 18 256 4.8 9.7 0.00 0.00 0.00 32 1014.5
20260508034712 19 258 4.8 8.0 0.00 0.00 0.00 30 1014.7
20260508034211 19 306 4.8 8.0 0.00 0.00 0.00 29 1014.5
20260508033711 19 305 3.2 8.0 0.00 0.00 0.00 30 1014.5
20260508033208 19 317 1.6 6.4 0.00 0.00 0.00 30 1014.5
20260508032701 19 317 3.2 6.4 0.00 0.00 0.00 30 1014.7
20260508032204 19 333 3.2 6.4 0.00 0.00 0.00 29 1014.7
20260508031703 19 327 4.8 8.0 0.00 0.00 0.00 29 1014.6
20260508031206 19 313 6.4 9.7 0.00 0.00 0.00 29 1014.5
20260508030702 19 306 6.4 9.7 0.00 0.00 0.00 29 1014.5
20260508030155 20 319 4.8 9.7 0.00 0.00 0.00 29 1014.6
20260508025656 20 327 3.2 8.0 0.00 0.00 0.00 29 1014.7
20260508025154 20 0 3.2 9.7 0.00 0.00 0.00 29 1014.6
20260508024925 20 346 4.8 9.7 0.00 0.00 0.00 28 1014.6
20260508024149 20 339 4.8 8.0 0.00 0.00 0.00 28 1014.7
20260508023646 20 333 4.8 8.0 0.00 0.00 0.00 28 1014.6
20260508023145 20 328 4.8 8.0 0.00 0.00 0.00 28 1014.7
20260508022911 20 334 3.2 8.0 0.00 0.00 0.00 28 1014.7
20260508022132 21 342 1.6 6.4 0.00 0.00 0.00 28 1014.8
20260508021614 21 16 3.2 8.0 0.00 0.00 0.00 27 1014.9
20260508021115 21 5 4.8 8.0 0.00 0.00 0.00 27 1015.2
20260508020615 21 317 3.2 8.0 0.00 0.00 0.00 27 1015.4
20260508020113 22 33 3.2 4.8 0.00 0.00 0.00 26 1015.4
20260508015602 22 33 3.2 4.8 0.00 0.00 0.00 26 1015.4
20260508015101 22 33 3.2 4.8 0.00 0.00 0.00 25 1015.4
20260508014545 22 33 3.2 6.4 0.00 0.00 0.00 25 1015.6
20260508014047 22 21 3.2 6.4 0.00 0.00 0.00 25 1015.5
20260508013540 22 23 3.2 6.4 0.00 0.00 0.00 25 1015.6
20260508013040 22 0 3.2 6.4 0.00 0.00 0.00 25 1015.6
20260508012540 22 355 3.2 6.4 0.00 0.00 0.00 25 1015.5
20260508012044 22 30 3.2 6.4 0.00 0.00 0.00 25 1015.5
20260508011534 22 340 3.2 6.4 0.00 0.00 0.00 25 1015.5
20260508011023 22 301 1.6 4.8 0.00 0.00 0.00 25 1015.6
20260508010512 22 22 1.6 4.8 0.00 0.00 0.00 25 1015.6
20260508010008 22 319 1.6 6.4 0.00 0.00 0.00 25 1015.7
20260508005452 22 104 1.6 3.2 0.00 0.00 0.00 25 1015.7
20260508004952 22 119 3.2 8.0 0.00 0.00 0.00 24 1016.0
20260508004721 22 119 3.2 8.0 0.00 0.00 0.00 24 1016.0
20260508003949 22 102 1.6 8.0 0.00 0.00 0.00 24 1016.1
20260508003450 22 123 3.2 8.0 0.00 0.00 0.00 24 1016.3
20260508002951 22 82 1.6 6.4 0.00 0.00 0.00 24 1016.4
20260508001953 22 41 1.6 8.0 0.00 0.00 0.00 24 1016.6
20260508001437 22 41 4.8 12.9 0.00 0.00 0.00 24 1016.7
20260508000936 22 42 6.4 12.9 0.00 0.00 0.00 25 1016.6
20260508000702 22 5 4.8 11.3 0.00 0.00 0.00 24 1016.6
20260507235919 22 34 6.4 11.3 0.00 0.00 0.00 24 1016.8
20260507235408 23 334 6.4 12.9 0.00 0.00 0.00 24 1016.9
20260507234901 22 27 6.4 12.9 0.00 0.00 0.00 24 1016.8
20260507234353 22 33 6.4 12.9 0.00 0.00 0.00 24 1016.8
20260507234119 22 5 6.4 12.9 0.00 0.00 0.00 25 1016.9
20260507233338 22 33 8.0 16.1 0.00 0.00 0.00 24 1016.9
20260507232831 22 26 6.4 16.1 0.00 0.00 0.00 24 1017.0
20260507232554 22 282 4.8 9.7 0.00 0.00 0.00 24 1017.1
20260507231817 22 28 6.4 14.5 0.00 0.00 0.00 24 1017.1
20260507231305 22 286 6.4 17.7 0.00 0.00 0.00 23 1017.2
20260507230802 22 344 8.0 19.3 0.00 0.00 0.00 23 1017.2
20260507230252 23 310 6.4 19.3 0.00 0.00 0.00 23 1017.5
20260507225747 23 326 4.8 11.3 0.00 0.00 0.00 23 1017.6
20260507225234 23 69 4.8 14.5 0.00 0.00 0.00 23 1017.4
20260507224733 23 72 6.4 14.5 0.00 0.00 0.00 23 1017.5
20260507224226 23 203 6.4 12.9 0.00 0.00 0.00 23 1017.5